GW0850 Weather Reports


time (UTC)temp
C
wind
direction
speed
KPH
gust
KPH
rain 1hr
cm
rain 24hr
cm
rain mn
cm
humidity
%
barometer
mb
20260507150714 10 118 0.0 4.8 0.00 0.03 0.03 72 1016.2
20260507145712 11 347 3.2 6.4 0.00 0.03 0.03 72 1016.4
20260507144711 10 147 0.0 3.2 0.00 0.03 0.03 73 1016.4
20260507143706 10 195 1.6 4.8 0.00 0.03 0.03 71 1016.3
20260507142704 9 274 0.0 3.2 0.00 0.03 0.03 74 1016.5
20260507141703 8 110 0.0 3.2 0.00 0.03 0.03 78 1016.4
20260507140702 8 188 3.2 8.0 0.05 0.03 0.03 77 1016.8
20260507135657 8 57 4.8 4.8 0.00 0.00 0.00 75 1017.0
20260507134656 8 298 1.6 12.9 0.00 0.00 0.00 76 1017.2
20260507133654 8 13 3.2 12.9 0.00 0.00 0.00 77 1016.6
20260507132655 7 251 3.2 4.8 0.05 0.00 0.00 77 1016.8
20260507131654 8 9 3.2 4.8 0.00 0.00 0.00 74 1016.5
20260507130653 8 82 1.6 8.0 0.00 0.00 0.00 70 1016.1
20260507125650 8 241 1.6 8.0 0.00 0.00 0.00 69 1016.3
20260507124649 7 109 1.6 6.4 0.00 0.00 0.00 69 1016.4
20260507123645 7 102 0.0 6.4 0.00 0.00 0.00 68 1016.1
20260507122643 7 158 0.0 3.2 0.00 0.00 0.00 65 1016.0
20260507121641 7 94 0.0 3.2 0.00 0.00 0.00 64 1015.7
20260507120639 7 75 1.6 3.2 0.00 0.00 0.00 63 1015.5
20260507115638 6 94 0.0 6.4 0.00 0.00 0.00 62 1015.7
20260507114636 6 172 1.6 8.0 0.00 0.00 0.00 61 1015.6
20260507113631 6 184 1.6 8.0 0.00 0.00 0.00 61 1015.3
20260507112631 6 118 1.6 6.4 0.00 0.00 0.00 61 1015.1
20260507111631 6 316 3.2 9.7 0.00 0.00 0.00 59 1015.5
20260507110629 6 187 4.8 8.0 0.00 0.00 0.00 58 1015.4
20260507105629 6 152 3.2 14.5 0.00 0.00 0.00 56 1015.5
20260507104628 6 177 0.0 6.4 0.00 0.00 0.00 57 1015.3
20260507103626 6 200 6.4 6.4 0.00 0.00 0.00 59 1015.6
20260507102626 6 144 1.6 3.2 0.00 0.00 0.00 59 1015.6
20260507101624 6 110 3.2 4.8 0.00 0.00 0.00 57 1015.9
20260507100623 6 130 1.6 3.2 0.00 0.00 0.00 56 1016.0
20260507095619 6 100 0.0 4.8 0.00 0.00 0.00 57 1016.0
20260507094617 6 113 1.6 3.2 0.00 0.00 0.00 57 1016.1
20260507093612 6 102 1.6 6.4 0.00 0.00 0.00 56 1016.2
20260507092612 7 121 3.2 3.2 0.00 0.00 0.00 54 1016.3
20260507091612 7 189 1.6 4.8 0.00 0.00 0.00 53 1016.6
20260507090609 7 210 4.8 4.8 0.00 0.00 0.00 52 1016.9
20260507085609 7 163 0.0 3.2 0.00 0.00 0.00 53 1017.2
20260507084609 7 110 0.0 3.2 0.00 0.00 0.00 53 1017.0
20260507083608 7 127 1.6 3.2 0.00 0.00 0.00 53 1017.2
20260507082607 7 166 3.2 8.0 0.00 0.00 0.00 53 1017.0
20260507081606 6 111 3.2 4.8 0.00 0.00 0.00 53 1017.1
20260507080605 6 334 3.2 3.2 0.00 0.00 0.00 54 1017.3
20260507075602 6 151 0.0 3.2 0.00 0.00 0.00 54 1017.2
20260507074602 6 139 0.0 3.2 0.00 0.00 0.00 55 1017.5
20260507073602 6 115 0.0 3.2 0.00 0.00 0.00 55 1017.6
20260507072601 6 149 1.6 3.2 0.00 0.00 0.00 55 1017.6
20260507071601 6 135 0.0 4.8 0.00 0.00 0.00 55 1017.7
20260507070600 6 179 0.0 4.8 0.00 0.00 0.00 55 1017.8
20260507065559 6 178 1.6 4.8 0.00 0.00 0.00 55 1018.0
20260507064554 6 147 0.0 3.2 0.00 0.00 0.00 56 1018.3
20260507063549 6 118 1.6 3.2 0.00 0.00 0.00 57 1018.0
20260507062549 6 184 1.6 3.2 0.00 0.00 0.00 57 1018.3
20260507061544 6 161 0.0 3.2 0.00 0.00 0.00 57 1018.2
20260507060540 6 172 1.6 3.2 0.00 0.00 0.00 57 1018.5
20260507055537 6 128 0.0 3.2 0.00 0.00 0.00 57 1018.4
20260507054535 6 177 1.6 4.8 0.00 0.00 0.00 56 1018.6
20260507053530 6 184 3.2 4.8 0.00 0.00 0.00 54 1018.7
20260507052526 6 158 0.0 3.2 0.00 0.00 0.00 54 1018.7
20260507051526 6 144 1.6 4.8 0.00 0.00 0.00 53 1018.7
20260507050524 6 177 0.0 3.2 0.00 0.00 0.00 55 1018.6
20260507045523 6 147 3.2 3.2 0.00 0.00 0.00 54 1018.9
20260507044523 6 131 3.2 3.2 0.00 0.00 0.00 53 1018.9
20260507043522 7 161 1.6 1.6 0.00 0.00 0.00 53 1018.8
20260507042521 6 130 0.0 3.2 0.00 0.00 0.00 54 1018.9
20260507041520 6 130 0.0 3.2 0.00 0.00 0.00 53 1018.9
20260507040519 5 124 1.6 1.6 0.00 0.00 0.00 60 1019.2
20260507035517 5 86 1.6 1.6 0.00 0.00 0.00 59 1019.1
20260507034516 5 118 0.0 1.6 0.00 0.00 0.00 57 1019.2
20260507033512 5 121 0.0 3.2 0.00 0.00 0.00 57 1019.2
20260507032512 5 113 1.6 1.6 0.00 0.00 0.00 58 1019.4
20260507031510 6 102 1.6 1.6 0.00 0.00 0.00 55 1019.5
20260507030510 6 118 1.6 1.6 0.00 0.00 0.00 56 1019.4
20260507025510 6 115 0.0 1.6 0.00 0.00 0.00 55 1019.3
20260507024506 6 110 0.0 1.6 0.00 0.00 0.00 54 1019.4
20260507023504 6 124 0.0 1.6 0.00 0.00 0.00 55 1019.4
20260507022504 6 109 1.6 1.6 0.00 0.00 0.00 52 1019.6
20260507021501 7 110 0.0 0.0 0.00 0.00 0.00 52 1019.2
20260507020501 7 94 0.0 0.0 0.00 0.00 0.00 52 1019.3
20260507015457 7 102 0.0 1.6 0.00 0.00 0.00 49 1019.4
20260507014456 8 118 0.0 1.6 0.00 0.00 0.00 47 1019.1
20260507013454 8 103 0.0 1.6 0.00 0.00 0.00 43 1019.1
20260507012454 10 103 0.0 1.6 0.00 0.00 0.00 39 1019.4
20260507011454 10 33 0.0 1.6 0.00 0.00 0.00 37 1019.0
20260507010450 11 94 0.0 1.6 0.00 0.00 0.00 36 1019.1
20260507005450 11 4 3.2 6.4 0.00 0.00 0.00 32 1019.3
20260507004449 12 94 1.6 6.4 0.00 0.00 0.00 31 1019.0
20260507003448 12 172 0.0 8.0 0.00 0.00 0.00 30 1019.1
20260507002446 13 184 0.0 8.0 0.00 0.00 0.00 29 1019.1
20260507001445 12 315 0.0 8.0 0.00 0.00 0.00 30 1019.5
20260507000444 13 94 1.6 12.9 0.00 0.00 0.00 29 1019.4
20260506235444 13 78 0.0 9.7 0.00 0.00 0.00 28 1019.6
20260506234443 14 279 3.2 17.7 0.00 0.00 0.00 28 1019.5
20260506233442 15 294 4.8 9.7 0.00 0.00 0.00 27 1019.4
20260506232441 15 9 4.8 11.3 0.00 0.00 0.00 28 1019.4
20260506231441 12 58 0.0 11.3 0.00 0.00 0.00 30 1019.8
20260506230440 13 38 4.8 16.1 0.00 0.00 0.00 30 1019.9
20260506225440 13 322 4.8 8.0 0.00 0.00 0.00 31 1019.8
20260506224440 13 85 4.8 19.3 0.00 0.00 0.00 29 1019.8
20260506223438 12 343 4.8 14.5 0.00 0.00 0.00 31 1019.8
20260506222437 13 282 9.7 9.7 0.00 0.00 0.00 30 1019.8
20260506221437 13 94 1.6 17.7 0.00 0.00 0.00 29 1019.9
20260506220436 13 78 1.6 9.7 0.00 0.00 0.00 31 1019.9
20260506215435 13 20 11.3 17.7 0.00 0.00 0.00 29 1019.8
20260506214434 13 14 14.5 30.6 0.00 0.00 0.00 30 1020.0
20260506213429 13 238 6.4 16.1 0.00 0.00 0.00 30 1019.8
20260506212427 13 89 3.2 12.9 0.00 0.00 0.00 32 1019.9
20260506211423 13 146 6.4 14.5 0.00 0.00 0.00 31 1020.1
20260506210422 13 277 4.8 17.7 0.00 0.00 0.00 30 1020.2
20260506205420 13 346 8.0 9.7 0.00 0.00 0.00 32 1020.1
20260506204420 13 68 4.8 14.5 0.00 0.00 0.00 30 1020.4
20260506203420 13 7 8.0 14.5 0.00 0.00 0.00 30 1020.6
20260506202420 13 274 4.8 27.4 0.00 0.00 0.00 31 1020.4
20260506201420 13 52 0.0 9.7 0.00 0.00 0.00 33 1020.6
20260506200418 13 46 4.8 14.5 0.00 0.00 0.00 32 1020.6
20260506195418 12 338 4.8 11.3 0.00 0.00 0.00 31 1020.7
20260506194418 12 31 12.9 12.9 0.00 0.00 0.00 32 1020.8
20260506193418 12 204 1.6 22.5 0.00 0.00 0.00 31 1020.8
20260506192417 12 6 6.4 9.7 0.00 0.00 0.00 34 1020.7
20260506191416 12 210 4.8 20.9 0.00 0.00 0.00 32 1020.7
20260506190415 12 14 11.3 11.3 0.00 0.00 0.00 33 1020.8
20260506185416 12 42 11.3 11.3 0.00 0.00 0.00 32 1020.9
20260506184415 12 303 4.8 16.1 0.00 0.00 0.00 33 1021.2
20260506183414 12 75 3.2 20.9 0.00 0.00 0.00 33 1021.2
20260506182414 12 78 4.8 20.9 0.00 0.00 0.00 34 1021.0
20260506181409 11 277 6.4 20.9 0.00 0.00 0.00 34 1021.4
20260506180408 12 199 6.4 19.3 0.00 0.00 0.00 38 1021.5
20260506175408 11 55 3.2 11.3 0.00 0.00 0.00 36 1021.4
20260506174402 11 356 11.3 22.5 0.00 0.00 0.00 35 1021.7
20260506173402 11 358 1.6 12.9 0.00 0.00 0.00 37 1021.7
20260506172401 10 36 8.0 12.9 0.00 0.00 0.00 37 1021.8
20260506171356 10 354 4.8 22.5 0.00 0.00 0.00 38 1021.8
20260506170355 10 338 4.8 20.9 0.00 0.00 0.00 37 1022.0
20260506165352 10 18 4.8 14.5 0.00 0.00 0.00 36 1021.9
20260506164351 10 6 4.8 14.5 0.00 0.00 0.00 37 1021.9
20260506163349 10 8 17.7 17.7 0.00 0.00 0.00 36 1021.8
20260506162349 11 357 4.8 6.4 0.00 0.00 0.00 39 1021.8
20260506161343 10 309 0.0 12.9 0.00 0.00 0.00 38 1021.9
20260506160343 10 16 0.0 11.3 0.00 0.00 0.00 40 1021.5
20260506155339 10 257 0.0 11.3 0.00 0.00 0.00 38 1021.5
20260506153456 10 274 1.6 6.4 0.00 0.00 0.00 43 1021.8
20260506152456 10 165 4.8 12.9 0.00 0.00 0.00 41 1021.7